IBS2010 LEMD-LEZL

Flight info

Callsign IBS2010
Flight time N/A
Altitude 29000
Route VTB N10 HIJ
Aircraft A21N/M-SDE3FGHIRWY/LB1

Departure

Time N/A
Airport Adolfo Suárez Madrid–Barajas Airport (LEMD)

Arrival

Time 2026-04-15 21:18
Airport Seville Airport (LEZL)
Time Latitude Longitude Altitude Speed Heading
2026-04-15 20:42 40.07331 -3.59048 22444 ft 428 kts 163°
2026-04-15 20:42 40.04474 -3.57808 22949 ft 431 kts 163°
2026-04-15 20:43 40.01609 -3.56565 23464 ft 433 kts 163°
2026-04-15 20:43 39.98749 -3.55326 23946 ft 436 kts 163°
2026-04-15 20:43 39.95875 -3.54080 24395 ft 439 kts 163°
2026-04-15 20:43 39.92941 -3.52810 24821 ft 442 kts 163°
2026-04-15 20:44 39.89967 -3.51526 25230 ft 445 kts 164°
2026-04-15 20:44 39.87055 -3.50270 25628 ft 448 kts 164°
2026-04-15 20:44 39.84059 -3.48978 25999 ft 451 kts 164°
2026-04-15 20:44 39.81045 -3.47682 26376 ft 454 kts 164°
2026-04-15 20:45 39.78059 -3.46402 26737 ft 456 kts 165°
2026-04-15 20:45 39.74947 -3.45647 27033 ft 450 kts 182°
2026-04-15 20:45 39.71879 -3.46206 27384 ft 441 kts 201°
2026-04-15 20:45 39.69120 -3.47926 27751 ft 431 kts 218°
2026-04-15 20:46 39.66943 -3.50531 28079 ft 424 kts 234°
2026-04-15 20:46 39.65442 -3.53802 28384 ft 419 kts 250°
2026-04-15 20:46 39.64713 -3.57418 28682 ft 416 kts 264°
2026-04-15 20:46 39.64280 -3.61146 29030 ft 418 kts 259°
2026-04-15 20:47 39.63309 -3.64727 29214 ft 425 kts 246°
2026-04-15 20:47 39.61598 -3.67862 29227 ft 432 kts 231°
2026-04-15 20:47 39.59507 -3.70702 29228 ft 433 kts 230°
2026-04-15 20:48 39.55298 -3.76304 29231 ft 433 kts 229°
2026-04-15 20:48 39.51062 -3.81845 29235 ft 432 kts 229°
2026-04-15 20:49 39.46811 -3.87385 29235 ft 432 kts 229°
2026-04-15 20:49 39.42557 -3.92921 29240 ft 432 kts 229°
2026-04-15 20:50 39.38327 -3.98420 29241 ft 432 kts 229°
2026-04-15 20:50 39.34053 -4.03964 29239 ft 432 kts 229°
2026-04-15 20:51 39.29815 -4.09454 29236 ft 432 kts 229°
2026-04-15 20:51 39.25563 -4.14951 29233 ft 432 kts 229°
2026-04-15 20:52 39.21315 -4.20430 29226 ft 433 kts 229°
2026-04-15 20:52 39.17018 -4.25965 29226 ft 433 kts 229°
2026-04-15 20:53 39.12746 -4.31457 29229 ft 434 kts 229°
2026-04-15 20:53 39.08460 -4.36958 29222 ft 434 kts 229°
2026-04-15 20:54 39.04198 -4.42415 29232 ft 433 kts 229°
2026-04-15 20:54 38.99927 -4.47877 29227 ft 433 kts 229°
2026-04-15 20:55 38.95656 -4.53332 29227 ft 432 kts 229°
2026-04-15 20:55 38.91349 -4.58817 29229 ft 432 kts 229°
2026-04-15 20:56 38.87092 -4.64223 29228 ft 432 kts 229°
2026-04-15 20:56 38.82812 -4.69651 29228 ft 433 kts 228°
2026-04-15 20:57 38.78511 -4.75100 29216 ft 434 kts 228°
2026-04-15 20:57 38.76337 -4.77851 28658 ft 435 kts 228°
2026-04-15 20:57 38.74207 -4.80542 28165 ft 431 kts 228°
2026-04-15 20:57 38.72086 -4.83219 27664 ft 426 kts 228°
2026-04-15 20:58 38.69971 -4.85888 27157 ft 422 kts 228°
2026-04-15 20:58 38.67894 -4.88506 26658 ft 419 kts 227°
2026-04-15 20:58 38.65830 -4.91106 26168 ft 415 kts 227°
2026-04-15 20:58 38.63761 -4.93710 25661 ft 412 kts 227°
2026-04-15 20:59 38.61731 -4.96263 25160 ft 410 kts 227°
2026-04-15 20:59 38.59715 -4.98796 24647 ft 408 kts 227°
2026-04-15 20:59 38.57670 -5.01363 24125 ft 406 kts 227°
2026-04-15 20:59 38.55665 -5.03877 23600 ft 404 kts 227°
2026-04-15 21:00 38.53670 -5.06377 23101 ft 402 kts 227°
2026-04-15 21:00 38.51507 -5.08691 22562 ft 404 kts 217°
2026-04-15 21:00 38.49063 -5.10486 22050 ft 406 kts 207°
2026-04-15 21:00 38.46414 -5.11756 21558 ft 406 kts 200°
2026-04-15 21:01 38.43724 -5.12817 21071 ft 404 kts 199°
2026-04-15 21:01 38.41041 -5.13844 20592 ft 402 kts 199°
2026-04-15 21:01 38.38343 -5.14879 20111 ft 399 kts 199°
2026-04-15 21:01 38.35690 -5.15904 19627 ft 397 kts 199°
2026-04-15 21:02 38.33077 -5.16918 19137 ft 396 kts 199°
2026-04-15 21:02 38.30418 -5.17953 18629 ft 394 kts 199°
2026-04-15 21:02 38.27816 -5.18968 18126 ft 393 kts 199°
2026-04-15 21:02 38.25212 -5.19984 17625 ft 392 kts 199°
2026-04-15 21:03 38.22602 -5.21001 17142 ft 390 kts 199°
2026-04-15 21:03 38.19990 -5.22019 16676 ft 387 kts 198°
2026-04-15 21:03 38.17417 -5.23019 16218 ft 385 kts 198°
2026-04-15 21:03 38.14859 -5.24015 15753 ft 382 kts 198°
2026-04-15 21:04 38.12322 -5.25002 15294 ft 380 kts 198°
2026-04-15 21:04 38.09819 -5.25975 14842 ft 377 kts 198°
2026-04-15 21:04 38.07291 -5.26956 14376 ft 375 kts 198°
2026-04-15 21:04 38.04781 -5.27930 13908 ft 372 kts 198°
2026-04-15 21:05 38.02317 -5.28885 13447 ft 370 kts 198°
2026-04-15 21:05 37.99956 -5.29800 13017 ft 368 kts 198°
2026-04-15 21:05 37.97517 -5.30744 12564 ft 366 kts 198°
2026-04-15 21:05 37.95098 -5.31680 12121 ft 363 kts 198°
2026-04-15 21:06 37.92932 -5.32518 11713 ft 361 kts 198°
2026-04-15 21:06 37.91489 -5.33075 11439 ft 359 kts 198°
2026-04-15 21:06 37.88359 -5.34285 10863 ft 355 kts 197°
2026-04-15 21:06 37.85522 -5.35380 10636 ft 341 kts 197°
2026-04-15 21:07 37.84016 -5.35961 10554 ft 332 kts 197°
2026-04-15 21:07 37.80621 -5.37269 10335 ft 312 kts 197°
2026-04-15 21:07 37.77631 -5.38459 10058 ft 299 kts 202°
2026-04-15 21:08 37.75801 -5.39728 9665 ft 297 kts 217°
2026-04-15 21:08 37.74217 -5.41403 9304 ft 295 kts 222°
2026-04-15 21:08 37.72694 -5.43153 8940 ft 293 kts 223°
2026-04-15 21:08 37.71205 -5.44869 8583 ft 292 kts 223°
2026-04-15 21:09 37.69698 -5.46588 8230 ft 290 kts 222°
2026-04-15 21:09 37.68188 -5.48294 7870 ft 288 kts 222°
2026-04-15 21:09 37.66699 -5.49968 7526 ft 286 kts 222°
2026-04-15 21:09 37.65207 -5.51642 7175 ft 284 kts 222°
2026-04-15 21:10 37.63742 -5.53301 6835 ft 282 kts 222°
2026-04-15 21:10 37.62279 -5.54967 6492 ft 280 kts 222°
2026-04-15 21:10 37.60842 -5.56602 6158 ft 278 kts 222°
2026-04-15 21:10 37.59414 -5.58225 5825 ft 277 kts 222°
2026-04-15 21:11 37.57980 -5.59852 5488 ft 275 kts 222°
2026-04-15 21:11 37.56547 -5.61476 5149 ft 273 kts 222°
2026-04-15 21:11 37.55143 -5.63059 4968 ft 264 kts 220°
2026-04-15 21:11 37.53530 -5.64176 4571 ft 264 kts 193°
2026-04-15 21:12 37.51701 -5.64204 4151 ft 263 kts 165°
2026-04-15 21:12 37.50031 -5.63316 3757 ft 261 kts 145°
2026-04-15 21:12 37.48569 -5.62024 3631 ft 250 kts 144°
2026-04-15 21:12 37.47106 -5.60927 3564 ft 243 kts 152°
2026-04-15 21:13 37.45506 -5.60171 3402 ft 246 kts 170°
2026-04-15 21:13 37.43798 -5.60377 3216 ft 247 kts 202°
2026-04-15 21:13 37.42433 -5.61630 3035 ft 240 kts 234°
2026-04-15 21:13 37.41787 -5.63524 2700 ft 237 kts 264°
2026-04-15 21:14 37.41733 -5.65568 2344 ft 237 kts 274°
2026-04-15 21:14 37.41826 -5.67643 2071 ft 232 kts 274°
2026-04-15 21:14 37.41874 -5.69573 2041 ft 212 kts 272°
2026-04-15 21:14 37.41879 -5.71356 1993 ft 193 kts 271°
2026-04-15 21:15 37.41869 -5.72947 2000 ft 167 kts 270°
2026-04-15 21:15 37.41858 -5.74380 1994 ft 164 kts 271°
2026-04-15 21:15 37.41850 -5.75806 1874 ft 157 kts 271°
2026-04-15 21:15 37.41842 -5.77093 1673 ft 149 kts 271°
2026-04-15 21:16 37.41837 -5.78365 1484 ft 147 kts 271°
2026-04-15 21:16 37.41831 -5.79640 1296 ft 146 kts 270°
2026-04-15 21:16 37.41826 -5.80902 1111 ft 144 kts 270°
2026-04-15 21:16 37.41821 -5.82158 926 ft 143 kts 270°
2026-04-15 21:17 37.41815 -5.83390 745 ft 142 kts 270°
2026-04-15 21:17 37.41810 -5.84640 561 ft 142 kts 270°
2026-04-15 21:17 37.41806 -5.85898 377 ft 141 kts 270°
2026-04-15 21:17 37.41799 -5.87122 191 ft 139 kts 270°
2026-04-15 21:18 37.41794 -5.88284 98 ft 118 kts 270°
2026-04-15 21:18 37.41794 -5.89145 94 ft 79 kts 270°
2026-04-15 21:18 37.41789 -5.89785 88 ft 68 kts 275°
2026-04-15 21:18 37.41792 -5.90245 86 ft 38 kts 276°
2026-04-15 21:19 37.41905 -5.90301 86 ft 16 kts
2026-04-15 21:19 37.41983 -5.90243 87 ft 14 kts 84°
2026-04-15 21:19 37.41989 -5.90125 89 ft 12 kts 76°
2026-04-15 21:19 37.42034 -5.90049 91 ft 10 kts 40°
2026-04-15 21:20 37.42084 -5.89989 93 ft 9 kts 45°
2026-04-15 21:20 37.42128 -5.89943 95 ft 6 kts 24°
2026-04-15 21:20 37.42162 -5.89951 96 ft 4 kts 316°
2026-04-15 21:20 37.42181 -5.89976 96 ft 3 kts 313°
2026-04-15 21:21 37.42183 -5.89980 96 ft 0 kts 312°
2026-04-15 21:21 37.42185 -5.89983 96 ft 0 kts 312°